Location: Overspoor
(51.4747°N, 5.6641°E)
Time: 12:32:47
(UTC+02:00)

Envisat - Visible Passes

Search period start: 18 August 2018 00:00
Search period end: 28 August 2018 00:00
Orbit: 764 x 766 km, 98.2° (Epoch: 17 August)

Date Brightness Start Highest point End Pass type
(mag) Time Alt. Az. Time Alt. Az. Time Alt. Az.
19 Aug 5.6 21:58:59 10° SW 22:02:32 19° W 22:06:06 10° NW visible
20 Aug 4.7 21:20:46 10° SSW 21:25:25 36° W 21:30:08 10° NNW visible
21 Aug 6.0 22:26:51 10° WSW 22:28:30 11° W 22:30:08 10° WNW visible
22 Aug 5.4 21:47:15 10° SW 21:51:14 23° W 21:55:15 10° NW visible
23 Aug 4.3 21:09:21 10° S 21:14:12 44° W 21:19:04 10° NNW visible
24 Aug 5.8 22:14:28 10° WSW 22:17:09 14° W 22:19:50 10° NW visible
25 Aug 5.1 21:35:38 10° SSW 21:39:57 28° W 21:44:18 10° NW visible
27 Aug 5.7 22:02:29 10° SW 22:05:49 17° W 22:09:10 10° NW visible
